Annecy-Haute-Savoie-Mont Blanc Airport

Jump to: basic info | weather | frequencies | runways | comments

Related pages: nearby airports | nearby navaids | notams | map

Basic information (top)

Codes: NCY LFLP
Location: lon 45.929199, lat 6.098760, elev 1,521 ft / 464 m msl
Status: medium_airport
Scheduled airline service: yes
Links: Wikipedia Mobile

Weather (top)

Current conditions (rec'd 2014/07/29 22:30Z):

LFLP 292230Z AUTO 28002KT 9999 BKN012 OVC098 14/14 Q1013

Airport forecast (rec'd 2014/07/29 18:00Z):

TAF LFLP 291700Z 2918/3018 VRB02KT 9999 SCT020 BKN050 
      TEMPO 2918/2920 3000 SHRA BKN012 FEW015TCU 
      TEMPO 2920/3018 2000 -RA OVC005 PROB40 
      TEMPO 3014/3018 SCT030TCU

Frequencies (top)

Verify before use: may be inaccurate or out of date.

AFIS: 118.2 MHz (INFO)
APP: 123.7 MHz (CHAMBERY APP)
TWR: 118.2 MHz (ANNECY TWR)

Runways (top)

04/22: 5,348 x 98 ft (1,630 x 30 m) — paved — lighted — threshold 04 displaced 820 ft (250 m) — threshold 22 displaced 755 ft (230 m)

Latest comments (top)

No comments yet for Annecy-Haute-Savoie-Mont Blanc Airport

More... (top)

See also NOTAMs and nearby airports and navaids, or visit the Annecy-Haute-Savoie-Mont Blanc Airport page at the main OurAirports website..